Карточка аэропорта UASK

Внимание!
Информация на этой странице в стадии наполнения.
Если вы не увидели какой-то информации, или заметили неточность - пожалуйста сообщите нам!
Спасибо!
Команда RU-STAFF
Название аэропортаУсть-Каменогорск
Название аэропорта (англ.)Ust-Kamenogorsk
Превышение942 ft. (287.1 m.)
Координаты50°2.2020000000002', 82°29.598'
Высота перехода10000ft
Эшелон переходаFL120, QNH<733:FL130
Коды ответчика7250-7253, 0650-0657
Зона ОрВДАлматы РПИ (UAAA)
Данные METARUASK 212000Z 12002MPS 9999 FEW130 16/15 Q1006 NOSIG RMK QFE729/0973
Проноз погоды (TAF)UASK 211705Z 2118/2203 08003MPS 9999 SCT070 BKN100 TEMPO 2118/2121 13003MPS 3100 -TSRA BR FEW010 BKN030CB TEMPO 2121/2203 16003MPS 1500 -TSRA BR FEW007 BKN017CB
NOTAMshow/hide NOTAM
AWOS   TABLE

Информация о ВПП

ВПП Длина ВПП (м.) Покрытие Курс ВПП Частота ILS
122514Асфальтобетон124111.7
302514Асфальтобетон304109.7

Диспетчерские позиции

Позывной Наименование органа УВД Частота
UASK_TWRУсть-Каменогорск-Вышка130.1



Спутниковое изображение